Regional Weather Roundup
Issued by NWS

Home | Current Version | Previous Version | Text Only | Print | Product List | Glossary On
Versions: 1 2 3 4 5 6 7 8 9 10 11 12 13 14 15 16 17 18 19 20 21 22 23 24 25 26 27 28 29 30 31 32 33 34 35 36 37 38 39 40 41 42 43 44 45 46 47 48 49 50
000
ASUS45 KTFX 260119
RWRMT
MONTANA HOURLY WEATHER ROUNDUP
NATIONAL WEATHER SERVICE GREAT FALLS MT
619 PM MST TUE NOV 25 2014

NOTE: "FAIR" INDICATES FEW OR NO CLOUDS BELOW 12000 FEET WITH NO
SIGNIFICANT WEATHER AND/OR OBSTRUCTIONS TO VISIBILITY.

* THESE STATIONS ARE NOT UNDER NWS QUALITY CONTROL. THEY DO NOT
   REPORT WEATHER SUCH AS PRECIPITATION OR FOG.

MTZ001>007-043-260200-
WEST OF THE DIVIDE
CITY           SKY/WX    TMP DP  RH WIND       PRES   REMARKS
KALISPELL      FOG       32  30  92 CALM      30.11F VSB M1/4
MISSOULA       LGT RAIN  34  34 100 W7        30.18S WCI  28
BUTTE          LGT SNOW  30  28  92 W7        30.10R VSB 1 3/4 WCI  23
MULLAN PASS    LGT SNOW  27  23  85 VRB3      30.08F VSB 1 1/4
* ESSEX        N/A       31  30  96 NE2        N/A
* EUREKA APT   CLOUDY    34  32  92 CALM      30.14F
* HAMILTON APT CLOUDY    32  32 100 N6        30.16R VSB 1 1/2 WCI  26
* LIBBY APT    CLOUDY    36  34  92 CALM      30.16S
* LINCOLN      N/A       31  29  92 S4G9       N/A
* LOOKOUT PASS N/A       30  30 100 NW2        N/A
* POLSON       N/A       33  33 100 S1         N/A
* RONAN APT    CLOUDY    37  30  76 SE5        N/A   WCI  33
* SEELEY LAKE  N/A       31  29  92 NW3        N/A
* THOMP F APT  CLOUDY    32  30  92 N1         N/A
* YAAK HILL    N/A       34  32  92 NE1        N/A
$$

MTZ008-052>055-260200-
SOUTHWEST MONTANA
CITY           SKY/WX    TMP DP  RH WIND       PRES   REMARKS
BOZEMAN        LGT SNOW  32  30  92 N5        30.12R VSB 1    WCI  27
DILLON         N/A       34  32  92 NE9       30.07R WCI  27
* W YELLOWSTON CLOUDY    30  28  92 SW4G13     N/A
* ENNIS APT    CLOUDY    32  30  92 N6         N/A   WCI  26
* THREE FORKS  CLOUDY    34  -2  21 N/A        N/A
* BOULDER HILL N/A       28  25  89 N9         N/A   WCI  19
* MONIDA PASS  N/A       29  29 100 SE4        N/A
* RAYNOLDS PAS N/A       34  21  59 SW6        N/A   WCI  29
* WHITEHALL    N/A       33  31  92 SE2        N/A
* WISE RIVER   N/A       32  31  96 SE7        N/A   WCI  25
$$

MTZ009>010-012-014-046-048-049-054-260200-
EAST SLOPES AND CENTRAL MONTANA
CITY           SKY/WX    TMP DP  RH WIND       PRES   REMARKS
CUT BANK       CLOUDY    30  21  69 NE6       30.11S WCI  24
GREAT FALLS    CLOUDY    30  27  89 SW7       30.13R WCI  23
HELENA         LGT SNOW  34  32  92 CALM      30.14R VSB 1 1/2
MALMSTROM AFB  CLOUDY    30  28  92 SW7       30.16R WCI  23
* CONRAD       CLOUDY    32  21  64 CALM       N/A
* DEARBORN     N/A       34  23  64 N8         N/A   WCI  27
* EAST GLACIER N/A       26  19  75 SE3        N/A
* MONARCH      N/A       23  19  85 SW5        N/A   WCI  16
* PENDROY      N/A       30  21  69 SE4        N/A
* ROGERS PASS  N/A       27  25  92 SE1        N/A
* SAINT MARY   N/A       29  18  63 N/A        N/A
* SWEET GRASS  N/A       28  25  89 NE2        N/A
* WHITE SULPH  N/A       26  25  96 W5         N/A   WCI  20
$$

MTZ011-013-016-021-035-040-045-047-050-051-260200-
NORTH CENTRAL MONTANA
CITY           SKY/WX    TMP DP  RH WIND       PRES   REMARKS
HAVRE          CLOUDY    28  25  89 E3        30.13R
LEWISTOWN      CLOUDY    30  25  82 W13       30.09R WCI  20
* N BAR RANCH  CLOUDY    28  23  81 NW20G29   30.06R WCI  15
* CHINOOK      CLOUDY    28  21  75 N5        30.14R WCI  22
* FORT BENTON  CLOUDY    36  21  54 W10       30.14R WCI  29
* CHESTER      N/A       31  22  69 NW11       N/A   WCI  22
* DENTON       N/A       31  24  75 W8         N/A   WCI  24
* GEYSER       N/A       28  23  81 W14G19     N/A   WCI  17
* JUDITH GAP   N/A       28  19  69 NW20G27    N/A   WCI  15
* LOMA         N/A       35  23  62 W8G13      N/A   WCI  28
$$

MTZ017>020-022>027-061-062-260200-
NORTHEAST MONTANA
CITY           SKY/WX    TMP DP  RH WIND       PRES   REMARKS
GLASGOW        CLOUDY    25  19  78 N14       30.09R WCI  13
GLENDIVE       CLOUDY    27  23  85 N23G29    30.01R WCI  13
JORDAN         CLOUDY    28  25  89 N14       30.07R WCI  17
SIDNEY         CLOUDY    27  19  72 N16G22    30.04R WCI  15
* BEAVER HILL  N/A       26  23  88 N24G32     N/A   WCI  11
* CIRCLE       N/A       28  26  92 N14        N/A   WCI  17
* LINDSAY DVD  N/A       25  24  96 NW21G29    N/A   WCI  10
* NAVAJO       N/A       19  16  88 VRB14      N/A   WCI   5
* PLENTYWOOD A PTCLDY    19  16  88 N/A       30.04R
* POPLAR APT   PTCLDY    27  21  78 N/A       30.07R
* SACO         N/A       25  20  81 NW11G20    N/A   WCI  14
* SCOBEY APT   PTCLDY    21  12  68 N13        N/A   WCI   8
$$

MTZ028>042-056>058-260200-
SOUTHCENTRAL AND SOUTHEAST MONTANA
CITY           SKY/WX    TMP DP  RH WIND       PRES   REMARKS
BAKER          CLOUDY    30  27  89 NW28G37   29.90R WCI  15
BILLINGS       CLOUDY    34  21  59 NW16      30.08R WCI  24
LIVINGSTON     LGT SNOW  30  30 100 NW8       30.11R VSB 1 1/4 WCI  22
MILES CITY     CLOUDY    34  27  76 NW24G32   29.98R WCI  22
* BIG TIMBER A CLOUDY    27  27 100 NE5       30.14R VSB 3/4  WCI  21
* FORSYTH APT  CLOUDY    34  25  70 NW21G29   30.03R WCI  22
* LAUREL APT   CLOUDY    34  19  54 W11G16     N/A   WCI  26
* ALZADA       N/A       34  25  70 W17G26     N/A   WCI  23
* HYSHAM       N/A       33  17  52 NW6G12     N/A   WCI  27
* REED POINT   N/A       31  25  78 NW9        N/A   WCI  23
* ROSCOE HILL  N/A       25  22  88 N2         N/A
$$

REGIONAL REPORTS...DAKOTAS
CITY           SKY/WX    TMP DP  RH WIND       PRES   REMARKS
WILLISTON      CLOUDY    21  16  81 N17       30.02R WCI   7
DICKINSON      CLOUDY    30  27  89 NW21G31   29.81R WCI  17
BEACH          CLOUDY    27  27 100 N28G33    29.92R WCI  11
CROSBY         CLOUDY    16  14  92 NE9       30.06R WCI   5
TIOGA          CLOUDY    14  14 100 NE13      30.01R
BISMARCK       LGT SNOW  34  32  92 NW10      29.74R WCI  26
GRAND FORKS    LGT SNOW  19  14  81 N13       30.01R VSB 1 1/2 WCI   6
FARGO          CLOUDY    25  16  69 E5        29.93R WCI  19
BUFFALO SD     PTCLDY    34  28  79 NW25G39   29.78R WCI  21
RAPID CITY     CLOUDY    36  25  64 NW17      29.87R WCI  26
$$

REGIONAL REPORTS...WYOMING/IDAHO/WASHINGTON
CITY           SKY/WX    TMP DP  RH WIND       PRES   REMARKS
GILLETTE       FOG       28  25  89 NW23G30   29.98R WCI  14
SHERIDAN       LGT SNOW  30  27  89 W24       30.06R VSB 1 1/2 WCI  16
CODY           CLOUDY    27  25  92 N13       30.08R VSB 3    WCI  16
YELLOWSTONE LA CLOUDY    30  27  89 VRB7      30.03S WCI  23
SALMON         CLOUDY    34  32  92 N3        30.12R
MULLAN PASS    LGT SNOW  27  23  85 VRB3      30.08S VSB 1 1/4
SAND POINT     N/A       36  36 100 S3        30.19R
SPOKANE        LGT RAIN  34  34 100 N6        30.19S WCI  29
$$

REGIONAL REPORTS...ALBERTA
CITY           SKY/WX    TMP DP  RH WIND       PRES   REMARKS
CALGARY        CLOUDY    27  23  85 SE6       30.09R WCI  20
LETHBRIDGE     LGT SNOW  32  25  75 S6        30.12S WCI  26
MEDICINE HAT   CLOUDY    28  25  89 W6        30.14R WCI  21
EDMONTON       CLOUDY    16  10  77 N3        30.15S
WATERTON GATE  N/A       27  19  72 NE3        N/A
CARDSTON       N/A       28  23  81 S2         N/A
MILK RIVER     N/A       28  25  89 SW2        N/A
$$

REGIONAL REPORTS...SASKATCHEWAN
CITY           SKY/WX    TMP DP  RH WIND       PRES   REMARKS
SWIFT CURRENT  LGT SNOW  14  12  92 NE9       30.09R WCI   2
REGINA         CLOUDY    10   5  80 NE10      30.13R WCI  -4
VAL MARIE      N/A       21  18  88 N3         N/A
ASSINIBOIA     N/A       14  12  92 N14G20     N/A   WCI  -1
CORONACH       N/A       19  18  96 N15        N/A   WCI   5

$$




USA.gov is the U.S. government's official web portal to all federal, state and local government web resources and services.